Regional Weather Roundup
Issued by NWS Charleston, WV

Home | Current Version | Previous Version | Graphics & Text | Print | Product List | Glossary On
Versions: 1 2 3 4 5 6 7 8 9 10 11 12 13 14 15 16 17 18 19 20 21 22 23 24 25 26 27 28 29 30 31 32 33 34 35 36 37 38 39 40 41 42 43 44 45 46 47 48 49 50
359
ASUS41 KRLX 290510
RWRRLX
West Virginia Regional Weather Roundup
National Weather Service Charleston WV
100 AM EDT FRI APR 29 2016

Note: "fair" indicates few or no clouds below 12,000 feet with no
significant weather and/or obstructions to visibility.

WVZ003-290600-
Northern Panhandle of West Virginia

CITY           SKY/WX    TMP DP  RH WIND       PRES   REMARKS
WHEELING       LGT RAIN  48  46  93 N6        29.93S FOG
$$

WVZ009-290600-
Northwest West Virginia

CITY           SKY/WX    TMP DP  RH WIND       PRES   REMARKS
PARKERSBURG    CLOUDY    59  56  89 NW6       29.94R
$$

WVZ006-290600-
Western West Virginia

CITY           SKY/WX    TMP DP  RH WIND       PRES   REMARKS
HUNTINGTON       N/A     63  58  83 NW5       29.93R
$$

WVZ015-290600-
West Central West Virginia

CITY           SKY/WX    TMP DP  RH WIND       PRES   REMARKS
CHARLESTON       N/A     62  58  86 CALM      29.91R
$$

WVZ022-031-290600-
North Central West Virginia

CITY           SKY/WX    TMP DP  RH WIND       PRES   REMARKS
CLARKSBURG     CLOUDY    58  57  97 CALM      29.91R
MORGANTOWN     CLOUDY    55  50  83 CALM      29.93R
$$

WVZ025-035-042-045-290600-
Southern West Virginia

CITY           SKY/WX    TMP DP  RH WIND       PRES   REMARKS
BECKLEY        LGT RAIN  59  56  89 W6        29.97R
LOGAN          NOT AVBL
BLUEFIELD        N/A     56  55  97 VRB5      29.99F
LEWISBURG      LGT RAIN  58  56  94 SW3       29.95S
$$

WVZ047-290600-
Northern Mountains of West Virginia

CITY           SKY/WX    TMP DP  RH WIND       PRES   REMARKS
ELKINS         CLOUDY    57  54  89 CALM      29.94S
$$

WVZ052-290600-
Eastern Panhandle of West Virginia

CITY           SKY/WX    TMP DP  RH WIND       PRES   REMARKS
MARTINSBURG    FOG       46  46 100 CALM      30.00F VSB 1
PETERSBURG     CLOUDY    50  49  97 NW3       29.99S FOG
$$




USA.gov is the U.S. government's official web portal to all federal, state and local government web resources and services.